Regional Weather Roundup
Issued by NWS

Home | Current Version | Previous Version | Text Only | Print | Product List | Glossary On
Versions: 1 2 3 4 5 6 7 8 9 10 11 12 13 14 15 16 17 18 19 20 21 22 23 24 25 26 27 28 29 30 31 32 33 34 35 36 37 38 39 40 41 42 43 44 45 46 47 48 49 50
000
ASUS46 KLOX 010412
RWRCA

SOUTHERN CALIFORNIA WEATHER ROUNDUP
NATIONAL WEATHER SERVICE OXNARD CALIFORNIA
800 PM PST SAT JAN 31 2015

NOTE: "FAIR" INDICATES FEW OR NO CLOUDS BELOW 12,000 FEET WITH NO
SIGNIFICANT WEATHER AND/OR OBSTRUCTIONS TO VISIBILITY.

  -  STATIONS PRECEEDED BY AN ASTERISK (*) ARE NOT NWS OR FAA
     STATIONS AND ARE NOT SUBJECT TO NWS AND FAA QUALITY CONTROL.

CAZ041-042-087-010500-
LA AND ORANGE COUNTY COASTAL AREAS


CITY           SKY/WX    TMP DP  RH WIND       PRES   REMARKS
L.A. DOWNTOWN  CLEAR     60  54  80 CALM      29.95R
L.A. AIRPORT   CLEAR     60  56  86 SW5       29.95R
LONG BEACH     CLEAR     60  52  74 N5        29.95R

CITY           SKY/WX    TMP DP  RH WIND       PRES   REMARKS
AVALON           N/A    N/A N/A N/A MISG        N/A
FULLERTON      CLEAR     61  52  72 CALM      29.95R
HAWTHORNE      CLEAR     62  56  80 CALM      29.96R
*LEO CARRILLO    N/A     63  42  47 N8          N/A
*LOS ALAMITOS  FAIR      56  52  85 N3        29.96R
*REDONDO BEACH   N/A     60  55  82 CALM      29.96R
SANTA ANA      CLEAR     63  55  75 SE3       29.95R
STA MONICA APT CLEAR     59  55  87 NE3       29.95R
*STA MON PIER    N/A     62  58  87 N3        29.94R
TORRANCE       CLEAR     63  54  72 CALM      29.96R
*UCLA            N/A     57  52  82 NE6       29.93R

$$

CAZ547-548-048-010500-
LA COUNTY VALLEYS AND INLAND EMPIRE


CITY           SKY/WX    TMP DP  RH WIND       PRES   REMARKS
BURBANK        CLEAR     60  51  72 SE3       29.95R
VAN NUYS       CLEAR     63  44  50 SW5       29.95R

CITY           SKY/WX    TMP DP  RH WIND       PRES   REMARKS
CORONA AIRPORT CLEAR     56  52  86 CALM      29.96R
CHINO          PTCLDY    59  52  77 W3        29.97R
*CLAREMONT       N/A     54  47  76 N5          N/A
MARCH AFB      CLEAR     51  42  72 NW3       29.96R
*NORTHRIDGE      N/A     64  34  32 NW3         N/A
ONTARIO        PTCLDY    57  50  77 CALM      29.95R
*PASADENA        N/A     61  54  77 E1          N/A
RIVERSIDE      CLEAR     64  38  38 VRB3      29.95R
SAN BERNARDINO CLEAR     61  34  36 N10       29.96R
*SAN RAFAEL HI   N/A     57  48  73 SW10        N/A
*SAUGUS          N/A     62  38  41 N5G16       N/A
*WHITEMAN AP   NOT AVBL
*WHITTIER HILL   N/A     56  50  80 NW3         N/A
*WOODLAND HILL   N/A     61  45  55 SW5         N/A

$$

CAZ054-055-010500-
LA AND SAN BERNARDINO COUNTY MOUNTAINS


CITY           SKY/WX    TMP DP  RH WIND       PRES   REMARKS
*ACTON           N/A     57  36  45 N5G16       N/A
*BIG BEAR AIRP PTCLDY    36  32  87 E8G25     30.09R WCI  29
*BIG PINES       N/A     34  31  89 CALM        N/A
MT WILSON NWS    N/A    N/A N/A N/A MISG        N/A
SANDBERG       CLEAR     48  35  60 NE7       30.06R
*WARM SPRINGS    N/A     52  33  49 NE14        N/A

$$

CAZ028-029-059-060-099-010500-
ANTELOPE VALLEY AND SURROUNDING AREAS


CITY           SKY/WX    TMP DP  RH WIND       PRES   REMARKS
LANCASTER      CLEAR     48  40  73 NE3       30.03R
PALMDALE       CLEAR     51  38  60 CALM      30.03R

CITY           SKY/WX    TMP DP  RH WIND       PRES   REMARKS
29 PALMS       PTCLDY    52  44  74 NW8       30.07R
BARSTOW/DAGGET CLEAR     54  40  59 S5        30.00R
BISHOP         PTCLDY    48   4  16 N12       30.13R
CHINA LAKE     CLEAR     58  30  34 NW14      30.01R
EDWARDS AFB    CLEAR     51  39  63 SW5       30.01R
MOJAVE         FAIR      48  39  71 NW6       30.04R
NEEDLES        CLEAR     62  42  47 N8        29.94R
VICTORVILLE    CLEAR     54  36  50 N5        30.03R

$$

CAZ039-040-010500-
VENTURA AND SANTA BARBARA COUNTY COAST


CITY           SKY/WX    TMP DP  RH WIND       PRES   REMARKS
CAMARILLO      CLEAR     58  53  84 CALM      29.97R
OXNARD AIRPORT CLEAR     60  55  83 NW5       29.97R
*POINT MUGU    CLEAR     61  55  81 CALM      29.98R
SBA APT/GOLETA CLEAR     55  50  83 NE6       29.96R
*SANTA BARBARA   N/A     60  50  70 CALM      30.05R
*VENTURA         N/A     59  49  68 CALM      30.02R

$$

CAZ044-045-010500-
VENTURA COUNTY VALLEYS


CITY           SKY/WX    TMP DP  RH WIND       PRES   REMARKS
*SIMI VALLEY     N/A     56  50  80 CALM      29.96R
*OJAI            N/A     51  46  84 CALM      29.95R
*FILLMORE        N/A     56  46  69 CALM      29.89R

$$

CAZ053-010500-
VENTURA COUNTY MOUNTAINS


CITY           SKY/WX    TMP DP  RH WIND       PRES   REMARKS
*LOCKWOOD VLY    N/A     37  28  70 MISG        N/A
*ROSE VALLEY     N/A     41  39  93 MISG        N/A

$$

CAZ034-035-036-010500-
CENTRAL COAST AND SANTA YNEZ VALLEY


CITY           SKY/WX    TMP DP  RH WIND       PRES   REMARKS
SAN LUIS OBISP CLEAR     59  47  64 N8        30.00R
SANTA MARIA    CLEAR     57  49  74 E3        29.99R

CITY           SKY/WX    TMP DP  RH WIND       PRES   REMARKS
*CAL POLY SLO    N/A     61  48  63 VRB6G16     N/A
*LOMPOC        CLEAR     55  48  76 W3        30.00S
*PISMO BEACH     N/A     61  49  64 S2        30.00R
*SANTA YNEZ    FAIR      54  46  76 W8        30.00R

$$

CAZ037-038-051-010500-
SAN LUIS OBISPO COUNTY INTERIOR AND CUYAMA VALLEY


CITY           SKY/WX    TMP DP  RH WIND       PRES   REMARKS
*CUYAMA          N/A     48  42  80 CALM      30.03R
PASO ROBLES    CLEAR     49  43  80 E7        30.03R

$$

CAZ032-033-061-010500-
SOUTHERN DESERTS


CITY           SKY/WX    TMP DP  RH WIND       PRES   REMARKS
BLYTHE         CLEAR     58  52  80 N6        29.92R
IMPERIAL       CLOUDY    63  49  60 NW5       29.92R
PALM SPRINGS   CLEAR     63  43  48 S6        29.97R
THERMAL        PTCLDY    62  44  51 N5        29.93R

$$

ELSEWHERE ACROSS THE WESTERN UNITED STATES AND MEXICO


CITY           SKY/WX    TMP DP  RH WIND       PRES   REMARKS
DENVER, CO     CLOUDY    33  30  88 NW3       29.87R
GRAND CANYON,  CLEAR     29  29 100 CALM      30.04R
HONOLULU, HI   MOCLDY    75  63  64 S7        29.98R
KAHULUI, MAUI  MOCLDY    75  68  78 NE10      29.98R
LAKE TAHOE, CA CLEAR     30  15  53 S5        30.19F WCI  25
LAS VEGAS, NV  PTCLDY    56  40  55 S5        29.97R
MAMMOTH LAKES, FAIR      32   5  32 NW5       30.23S WCI  27
MEXICO CITY, M CLEAR     57  36  44 SE13      30.26R
PHOENIX, AZ    CLOUDY    56  53  90 E3        29.92R
PORTLAND, OR   CLOUDY    43  34  70 SE8       30.12F
RENO, NV       PTCLDY    40  19  43 SW6       30.19F
SALT LAKE CITY CLEAR     36  29  75 NW3       30.12S
SAN DIEGO, CA  MOCLDY    61  53  75 CALM      29.97R
SAN FRANCISCO, CLEAR     58  53  84 W12       30.01R
SAN JOSE, CA   CLEAR     58  29  33 CALM      30.00R
SEATTLE, WA    CLOUDY    43  40  89 N6        30.15F
TIJUANA, MEX   MOCLDY    59  50  72 CALM      29.99R

$$

STATION/POSITION TIME  TEMP    WIND        PRES    VSBY  WAVE
                       AIR SEA DIR/SP/G                  HT/PER
                 (UTC) (F)     (DEG/KT/KT) (MB)    (MI)  (FT/S)
POINT ARGUELLO B NOT AVBL
WEST SANTA BARBA 0400   60 60  330/ 19/ 23 1014.1R         6/14
POINT CONCEPTION NOT AVBL
EAST SANTA BARBA NOT AVBL
SANTA MONICA BAY 0400   62 62  280/  4/  6 1014.8R         3/15


USA.gov is the U.S. government's official web portal to all federal, state and local government web resources and services.